TimeEST,TemperatureF,Dew PointF,Humidity,Sea Level PressureIn,VisibilityMPH,Wind Direction,Wind SpeedMPH,Gust SpeedMPH,PrecipitationIn,Events,Conditions,WindDirDegrees,DateUTC
12:56 AM,36.0,24.1,62,30.49,10.0,Variable,4.6,-,N/A,,Clear,0,2012-11-14 05:56:00
1:56 AM,34.0,24.1,67,30.48,10.0,ENE,3.5,-,N/A,,Clear,60,2012-11-14 06:56:00
2:56 AM,30.9,24.1,76,30.49,10.0,NNW,5.8,-,N/A,,Clear,330,2012-11-14 07:56:00
3:56 AM,30.0,25.0,82,30.50,10.0,NNW,4.6,-,N/A,,Scattered Clouds,340,2012-11-14 08:56:00
4:56 AM,32.0,25.0,75,30.49,10.0,North,6.9,-,N/A,,Mostly Cloudy,10,2012-11-14 09:56:00
5:56 AM,30.0,25.0,82,30.50,10.0,North,3.5,-,N/A,,Mostly Cloudy,350,2012-11-14 10:56:00
6:56 AM,30.9,25.0,79,30.50,10.0,NNE,3.5,-,N/A,,Mostly Cloudy,30,2012-11-14 11:56:00
7:56 AM,32.0,25.0,75,30.49,10.0,NE,3.5,-,N/A,,Mostly Cloudy,40,2012-11-14 12:56:00
8:56 AM,35.6,26.6,70,30.50,10.0,ENE,3.5,-,N/A,,Mostly Cloudy,70,2012-11-14 13:56:00
9:56 AM,37.9,26.1,62,30.52,10.0,ENE,3.5,-,N/A,,Overcast,60,2012-11-14 14:56:00
10:56 AM,42.1,27.0,55,30.51,10.0,ENE,6.9,-,N/A,,Overcast,70,2012-11-14 15:56:00
11:56 AM,44.1,27.0,51,30.48,10.0,NE,8.1,-,N/A,,Overcast,40,2012-11-14 16:56:00
12:56 PM,46.0,27.0,47,30.44,10.0,East,9.2,-,N/A,,Overcast,80,2012-11-14 17:56:00
1:56 PM,46.0,27.0,47,30.43,10.0,NE,9.2,-,N/A,,Overcast,50,2012-11-14 18:56:00
2:56 PM,46.0,28.0,50,30.40,10.0,ENE,4.6,-,N/A,,Overcast,60,2012-11-14 19:56:00
3:56 PM,46.9,28.0,48,30.39,10.0,ENE,9.2,-,N/A,,Overcast,60,2012-11-14 20:56:00
4:56 PM,46.0,27.0,47,30.40,10.0,ENE,3.5,-,N/A,,Mostly Cloudy,70,2012-11-14 21:56:00
5:56 PM,44.1,28.9,55,30.40,10.0,North,5.8,-,N/A,,Overcast,10,2012-11-14 22:56:00
6:56 PM,43.0,28.0,56,30.40,10.0,NE,5.8,-,N/A,,Mostly Cloudy,50,2012-11-14 23:56:00
7:56 PM,41.0,28.0,60,30.40,10.0,East,5.8,-,N/A,,Scattered Clouds,80,2012-11-15 00:56:00
8:56 PM,39.0,28.0,65,30.39,10.0,ENE,4.6,-,N/A,,Partly Cloudy,60,2012-11-15 01:56:00
9:56 PM,39.0,28.0,65,30.38,10.0,ENE,4.6,-,N/A,,Clear,70,2012-11-15 02:56:00
10:56 PM,36.0,28.0,73,30.38,10.0,North,3.5,-,N/A,,Clear,10,2012-11-15 03:56:00
11:56 PM,36.0,28.0,73,30.38,10.0,Calm,Calm,-,N/A,,Clear,0,2012-11-15 04:56:00